Weather in Nizhniy Bestyakh

Russia / Sakha (Yakutia) Republic     61°57′30″N   129°54′27″E
temp.,
°C
wind,
m/s
gust,
m/s
humid.,
%
clouds,
%
prec.,
mm/h
press.,
hPa
HPBL,
m
21 june, mon
mon2100:00+18nne22475 0.0 100511
03:00+16n11485 0.0 100611
06:00+21nnw124495 0.0 100682
09:00+28nnw12315 0.0 1005503
12:00+31n2323100 0.1 10041556
15:00+33nnw242418 0.1 10022575
18:00+32nne452914 0.0 10011404
21:00+25n22461 0.0 100120
22 june, tue
tue2200:00+20nw22492 0.0 100115
03:00+17nw11610 0.0 100112
06:00+21n25485 0.0 1002171
09:00+28n34305 0.0 1002604
12:00+32n36205 0.0 10012301
15:00+33n46195 0.0 10013297
18:00+32n46254 0.0 10002544
21:00+24nw225098 0.2 100119
23 june, wed
wed2300:00+18nw277547 0.2 1002129
03:00+16ne118676 0.2 100316
06:00+20n01695 0.0 1003200
09:00+26se12445 0.0 1003648
12:00+31ssw21276 0.1 10031646
15:00+31se122888 0.2 10011320
18:00+20ssw61281100 0.3 1001256
21:00+18ssw358721 2.1 1000107
24 june, thu
thu2400:00+17wnw61481100 0.9 1000318
03:00+16e22925 1.0 100022
06:00+18w2389100 1.4 1000279
09:00+20nnw3478100 2.7 1000816
12:00+19ene578663 0.9 1000587
15:00+22ene565421 0.9 10011386
18:00+22e46513 0.0 10021414
21:00+18se11680 0.0 100312
25 june, fri
fri2500:00+15ssw217925 0.0 100514
03:00+13ssw229064 0.1 100723
06:00+17sw12745 0.1 1007212
09:00+23ssw01530 0.1 1008824
12:00+27sse03360 0.0 10082090
15:00+27ne132969 0.0 10072712
18:00+27se342924 0.0 10072026
21:00+20s37622 0.0 1009121